Find Starlink 33745

NORAD ID: 63714 Int'l Des: 2025-087 Owner: SPXS Country: US Constellation: starlink operational
LEOCIRCULAR

現在のビュー

3D地球を読み込み中...

About Starlink 33745

Starlink 33745 (NORAD 63714) is a starlink constellation satellite (v2 mini) launched Apr 28, 2025 by SPXS of US. It operates in LEO, CIRCULAR orbit with a mass of 575.00 kg.

次回通過

Passes for default location (London). Set your location on the main map for personalized predictions.

高度履歴

Loading altitude history...

軌道要素

1 63714U 25087T 26264.66617998 .00018764 00000-0 56496-3 0 9994
2 63714 53.1617 27.9098 0001254 61.1533 298.9595 15.34407796 79225
Epoch: Sep 21, 2026 • Age: 11 hours

現在のステータス

高度 464.5 km
遠地点 / 近地点 N/A
速度 7.64 km/s
衛星直下点 -7.46°S, 24.17°W
打ち上げ日 Apr 28, 2025
運用期間 1.3 years
タイプ internet

技術仕様

分類 Payload
質量 575.00 kg
乾燥質量 530.00 kg
長さ 0.30 m
スパン 29.00 m
形状 ? Box + pan
製造者 SPXS
バスタイプ Starlink V2MO
フェーズステータス In Orbit
所有者/国 SPXS/US

Most Searched